METEOSAT-9 (MSG-2)

Last updated on Tue Oct 15 2024 00:02:16 GMT+0000 (Coordinated Universal Time)

1 28912U 05049B 24288.48825580 .00000130 00000+0 00000+0 0 9996 2 28912 7.9580 59.8252 0002086 169.1520 16.0749 1.00267425 884
UTC large
Height (km)
Speed (km/s)
/
Latitude / Longitude
Inclination (degrees)
Orbital Period (minutes)
Azimuth
Elevation
Range (km)
Doppler Factor

Next 0 passes for location: London (51.5072 / 0.1276)

Sorry there are no passes over London.